Tracking 25405 objects as of 26-Jan-2022
HD Live streaming from Space Station
objects crossing your sky now

STARLINK-1913

Track STARLINK-1913 now!
10-day predictions
STARLINK-1913 is classified as:


NORAD ID: 47179
Int'l Code: 2020-088BK
Perigee: 552.9 km
Apogee: 555.8 km
Inclination: 53.1 °
Period: 95.6 minutes
Semi major axis: 6925 km
RCS: Unknown
Launch date: November 25, 2020
Source: United States (US)
Launch site: AIR FORCE EASTERN TEST RANGE (AFETR)
aabbcc
Your satellite tracking list
Your tracking list is empty




NASA's NSSDC Master Catalog

Two Line Element Set (TLE):
1 47179U 20088BK  22025.85415790  .00000043  00000-0  21835-4 0  9996
2 47179  53.0522 222.5905 0002072  82.5965 277.5259 15.06401637 65032
Source of the keplerian elements: AFSPC